Location: Balaclava NSW 2575, Australia
(34.4510°S, 150.4953°E)
Time: 11:32:23
(UTC+10:00)

N. Korean satellite - Pass Details

Date: 24 May 2021
Orbit: 450 x 499 km, 97.2° (Epoch: 24 June)

Event Time Altitude Azimuth Distance (km) Brightness Sun altitude
Rises 18:15:11 0° 191° (SSW) 2,628 10.3 -15.6°
Reaches altitude 10° 18:18:05 10° 216° (SW) 1,730 9.6 -16.2°
Maximum altitude 18:20:06 14° 249° (WSW) 1,476 9.8 -16.6°
Drops below altitude 10° 18:22:05 10° 282° (WNW) 1,708 10.7 -17.0°
Sets 18:24:56 0° 307° (NW) 2,572 11.5 -17.6°
